FENGYUN 1C DEB, 35139

Orbit data source: Space-Track

FENGYUN 1C DEB, 35139 is space debris in SSO originally from a launch on Mon, 10 May 1999 UTC launched from the Taiyaun Space Center, China (TSC). Fengyun 1C debris stems from the Chinese weather satellite Fengyun-1C, which was intentionally destroyed by a Chinese anti-satellite missile in 2007. This event dramatically increased the amount of space debris, with thousands of trackable fragments posing hazards to satellites and human spaceflight. The Fengyun 1C debris cloud has become a focal point in discussions about space sustainability and the need for international regulations to prevent the creation of new debris.

Loading next visibility...
Identifier
35139, 1999-025DLT
Orbit
SSO
Country
Flag of CNCN / PRC
Related business
Manufacturer
Unknown
Mission
Spacecraft
Bus & Motor
Unknown
Mass
Unknown
Launch date (UTC)
1999-05-10 (27 years ago)
Launch vehicle
Unknown
Launch site
Taiyaun Space Center, China (TSC)
Object type
Payload
Rocket body
Debris
Shape & HBR
Unknown shape, 0.1 m
Radar Cross Section
Small (<0.1 m²)

Expand to show TLE details & history
Last TLE update: 1 week ago

TLE from 1 week ago
0 FENGYUN 1C DEB
1 35139U 99025DLT 26250.22456185  .00000376  00000-0  18735-3 0  9997
2 35139  98.5874 253.0522 0067396 238.5198 120.9382 14.21487796679679
Epoch: 2026-09-07T05:23Z
TLE epoch observation values (Epoch: 2026-09-07T05:23:22.143Z)
Latitude
-0.00003°
Longitude
-174.09845°
Altitude
848.432 km
Speed
7.415 km/s
True Right ascension
16h 52m 12s
True Declination
0° 00' 00"
Sunlit
Object was in daylight at epoch
Visualization orbit readout
Latitude
Unknown
Longitude
Unknown
Altitude
Unknown
Speed
Unknown
Apparent Right ascension
Unknown
Apparent Declination
Unknown
Sunlit
N/A
Visualization observer readout
Local Sidereal Time
05:50:24
Azimuth
Unknown
Elevation
Unknown
Doppler factor
Unknown
Orbital elements
Apogee altitude
865.972 km
Perigee altitude
768.981 km
Semi-major axis
7,195.613 km
Eccentricity
0.00674
Inclination
98.5874°
RAAN
253.0522°
Arg. of periapsis
238.5198°
True anomaly
121.59775°
Mean anomaly
120.9382°
Eccentric anomaly
121.26826°
Mean motion
3.55583 °/min
Orbital period
101.24 mins
BSTAR
0.00018735
Loading maneuver chart data...
Computing Atmospheric mass density...

Documentation

Showing up to 5 results
|